EXPRESS 103

Last updated on Wed Sep 09 2026 00:03:02 GMT+0000 (Coordinated Universal Time)

1 45985U 20053A 26251.46423324 -.00000301 00000+0 00000+0 0 9998 2 45985 0.0421 268.5291 0000979 352.1208 350.4935 1.00271732 22487
UTC large
Height (km)
Speed (km/s)
/
Latitude / Longitude
Inclination (degrees)
Orbital Period (minutes)
Azimuth
Elevation
Range (km)
Doppler Factor

Next 0 passes for location: London (51.5072 / 0.1276)

No passes found over London.
EXPRESS 103